Miscellaneous Local Product
Issued by NWS North Platte, NE

Home | Current Version | Previous Version | Text Only | Print | Product List | Glossary On
Versions: 1 2 3 4 5 6 7 8 9 10 11 12 13 14 15 16 17 18 19 20 21 22 23 24 25 26 27 28 29 30 31 32 33 34 35 36 37 38 39 40 41 42 43 44 45 46 47 48 49 50
154
AXUS43 KLBF 260010
MISLBF


WESTERN AND NORTH CENTRAL NEBRASKA HOURLY WEATHER ROUNDUP
NATIONAL WEATHER SERVICE NORTH PLATTE NE
700 PM CDT WED MAY 25 2016

NOTE: "FAIR" INDICATES FEW OR NO CLOUDS BELOW 12,000 FEET WITH NO
SIGNIFICANT WEATHER AND/OR OBSTRUCTIONS TO VISIBILITY.

NOTE: STATIONS NOT REPORTING VARIABLES SUCH AS SKY/WEATHER OR
PRESSURE ARE PROVIDED BY RAWS AND APRS NETWORKS AND ARE NOT UNDER
NATIONAL WEATHER SERVICE QUALITY CONTROL.

...OBSERVATIONS IN AND NEAR THE EASTERN PANHANDLE OF NEBRASKA...

CITY           SKY/WX    TMP DP  RH WIND       PRES   REMARKS
PINE RIDGE     MOSUNNY   68  43  40 W9        29.89R
CHADRON        SUNNY     69  39  33 NW7       29.89F
ALLIANCE       CLOUDY    67  36  31 S22       29.89F
SIDNEY         SUNNY     63  50  63 NE13      29.94F
BIG SPRINGS      N/A     70  48  44 NW7         N/A
$$

...OBSERVATIONS IN NORTHERN NEBRASKA AND FAR SOUTHERN SOUTH DAKOTA...

CITY           SKY/WX    TMP DP  RH WIND       PRES   REMARKS
WINNER         FAIR      70  49  47 NW7       29.81R
VALENTINE      PTSUNNY   71  44  37 W14       29.85S
THEDFORD       CLOUDY    75  40  28 W10       29.86S
AINSWORTH      PTSUNNY   70  45  41 NW10G17   29.85S
O`NEILL        MOSUNNY   77  57  50 CALM      29.80F
ORD            MOSUNNY   79  56  45 SW5       29.81F
BROKEN BOW     SUNNY     75  50  41 NW15      29.84S
BUTTE            N/A     76  56  50 NW6G15      N/A
CHAMBERS         N/A     82  56  40 SW6         N/A
EWING            N/A     80  57  44 SW7         N/A
$$

...OBSERVATIONS IN SOUTHWEST NEBRASKA AND FAR NORTHEAST COLORADO...

CITY           SKY/WX    TMP DP  RH WIND       PRES   REMARKS
WRAY           FAIR      66  52  59 E3        29.91S
HOLYOKE        FAIR      63  46  55 N25       29.92F
IMPERIAL       TSTM      54  48  80 NW24G48   29.95R
OGALLALA       CLOUDY    58  48  70 N18G24    29.90S
NORTH PLATTE   CLOUDY    71  45  39 N9        29.87S
MCCOOK         SUNNY     78  55  44 CALM      29.85S
LEXINGTON      SUNNY     76  57  52 CALM      29.85S
PAXTON           N/A     74  49  41 NW6         N/A
STAPLETON        N/A     75  46  35 CALM        N/A
GOTHENBURG       N/A     80  51  35 W5          N/A
CALLAWAY         N/A     76  57  51 W6          N/A
$$

...OBSERVATIONS IN CENTRAL LINCOLN COUNTY AREA...

CITY           SKY/WX    TMP DP  RH WIND       PRES   REMARKS
N.P. AIRPORT   CLOUDY    71  45  39 N9        29.87S
N.P. DOWNTOWN    N/A     73  47  39 NW3         N/A
N.P. SOUTHEAST   N/A     74  44  34 N3          N/A
N.P. HILLCREST   N/A     72  45  37 NW8         N/A
$$

...SOME OBSERVATIONS FROM AROUND THE REGION...

CITY           SKY/WX    TMP DP  RH WIND       PRES   REMARKS
DENVER         CLOUDY    71  42  35 E13       29.93S
LARAMIE        SUNNY     60  22  23 W22       30.03R
CHEYENNE       CLOUDY    61  36  39 S3        29.97S
SCOTTSBLUFF    SUNNY     72  37  28 SW14      29.90S
RAPID CITY     LGT RAIN  62  47  57 NE5       29.88R
BISMARCK       TSTM      59  56  89 SE5       29.75R
PIERRE         CLOUDY    69  52  54 W8        29.78R
SIOUX FALLS    MOSUNNY   78  61  55 VRB5      29.78F
OMAHA          PTSUNNY   78  66  66 S5        29.82S
GRAND ISLAND   MOSUNNY   75  64  68 S9        29.83F
KANSAS CITY    MOSUNNY   80  67  64 S12       29.85S
WICHITA        MOSUNNY   87  72  60 S15       29.78F HX  93
OKLAHOMA CITY  MOSUNNY   84  74  71 S18G24    29.85F HX  91
DALLAS         CLOUDY    85  74  69 S12       29.90S HX  92
AMARILLO       SUNNY     87  27  11 SW20G26   29.91S
DODGE CITY     SUNNY     80  65  59 N12       29.85S
HAYS           MOSUNNY   72  64  78 N5        29.83F
GOODLAND       SUNNY     78  43  28 S7        29.89R
$$




USA.gov is the U.S. government's official web portal to all federal, state and local government web resources and services.